SCP
0 0 0 0 0 0 0 0 0 0 0 0 0 0 0 0 0 0 0 0 0 0 0 0 0 0 0 0 0 0 0 0 0 0 0 0 0 0 0 0 0 0 0 0
0 0 0 0 0 0 0 0 0 0 0 0 0 0 0 0 0 0 0 0 0 0 0 0 0 0 0 0 0 0 0 0 0 0 0 0 0 0 0 0 0 0 0 0
0 0 0 0 0 0 0 0 0 0 0 0 0 0 0 0 0 0 0 0 0 0 0 0 0 0 0 0 0 0 0 0 0 0 0 0 0 0 0 0 0 0 0 0
0 0 0 0 0 0 0 0 0 0 0 0 0 0 0 0 0 0 0 0 0 0 0 0 0 0 0 0 0 0 0 0 0 0 0 0 0 0 0 0 0 0 0 0
0 0 0 0 0 0 0 0 0 0 0 0 0 0 0 0 0 0 0 0 0 0 0 0 0 0 0 0 0 0 0 0 0 0 0 0 0 0 0 0 0 0 0 0
0 0 0 0 0 0 0 0 0 0 0 0 0 0 0 0 0 0 0 0 0 0 0 0 0 0 0 0 0 0 0 0 0 0 0 0 0 0 0 0 0 0 0 0
0 0 0 0 0 0 0 0 0 0 0 0 0 0 0 0 0 0 0 0 0 0 0 0 0 0 0 0 0 0 0 0 0 0 0 0 0 0 0 0 0 0 0 0
0 0 0 0 0 0 0 0 0 0 0 0 0 0 0 0 0 0 0 0 0 0 0 0 0 0 0 0 0 0 0 0 0 0 0 0 0 0 0 0 0 0 0 0
0 0 0 0 0 0 0 0 0 0 0 0 0 0 0 0 0 0 0 0 0 0 0 0 0 0 0 0 0 0 0 0 0 0 0 0 0 0 0 0 0 0 0 0
0 0 0 0 0 0 0 0 0 0 0 0 0 0 0 0 0 0 0 0 0 0 0 0 0 0 0 0 0 0 0 0 0 0 0 0 0 0 0 0 0 0 0 0
0 0 0 0 0 0 0 0 0 0 0 0 0 0 0 0 0 0 0 0 0 0 0 0 0 0 0 0 0 0 0 0 0 0 0 0 0 0 0 0 0 0 0 0
0 0 0 0 0 0 0 0 0 0 0 0 0 0 0 0 0 0 0 0 0 0 0 0 0 0 0 0 0 0 0 0 0 0 0 0 0 0 0 0 0 0 0 0
0 0 0 0 0 0 0 0 0 0 0 0 0 0 0 0 0 0 0 0 0 0 0 0 0 0 0 0 0 0 0 0 0 0 0 0 0 0 0 0 0 0 0 0
0 0 0 0 0 0 0 0 0 0 0 0 0 0 0 0 0 0 0 0 0 0 0 0 0 0 0 0 0 0 0 0 0 0 0 0 0 0 0 0 0 0 0 0
0 0 0 0 0 0 0 0 0 0 0 0 0 0 0 0 0 0 0 0 0 0 0 0 0 0 0 0 0 0 0 0 0 0 0 0 0 0 0 0 0 0 0 0
0 0 0 0 0 0 0 0 0 0 0 0 0 0 0 0 0 0 0 0 0 0 0 0 0 0 0 0 0 0 0 0 0 0 0 0 0 0 0 0 0 0 0 0
0 0 0 0 0 0 0 0 0 0 0 0 0 0 0 0 0 0 0 0 0 0 0 0 0 0 0 0 0 0 0 0 0 0 0 0 0 0 0 0 0 0 0 0
0 0 0 0 0 0 0 0 0 0 0 0 0 0 0 0 0 0 0 0 0 0 0 0 0 0 0 0 0 0 0 0 0 0 0 0 0 0 0 0 0 0 0 0
0 0 0 0 0 0 0 0 0 0 0 0 0 0 0 0 0 0 0 0 0 0 0 0 0 0 0 0 0 0 0 0 0 0 0 0 0 0 0 0 0 0 0 0
0 0 0 0 0 0 0 0 0 0 0 0 0 0 0 0 0 0 0 0 0 0 0 0 0 0 0 0 0 0 0 0 0 0 0 0 0 0 0 0 0 0 0 0
0 0 0 0 0 0 0 0 0 0 0 0 0 0 0 0 0 0 0 0 0 0 0 0 0 0 0 0 0 0 0 0 0 0 0 0 0 0 0 0 0 0 0 0
0 0 0 0 0 0 0 0 0 0 0 0 0 0 0 0 0 0 0 0 0 0 0 0 0 0 0 0 0 0 0 0 0 0 0 0 0 0 0 0 0 0 0 0
0 0 0 0 0 0 0 0 0 0 0 0 0 0 0 0 0 0 0 0 0 0 0 0 0 0 0 0 0 0 0 0 0 0 0 0 0 0 0 0 0 0 0 0
0 0 0 0 0 0 0 0 0 0 0 0 0 0 0 0 0 0 0 0 0 0 0 0 0 0 0 0 0 0 0 0 0 0 0 0 0 0 0 0 0 0 0 0
0 0 0 0 0 0 0 0 0 0 0 0 0 0 0 0 0 0 0 0 0 0 0 0 0 0 0 0 0 0 0 0 0 0 0 0 0 0 0 0 0 0 0 0
0 0 0 0 0 0 0 0 0 0 0 0 0 0 0 0 0 0 0 0 0 0 0 0 0 0 0 0 0 0 0 0 0 0 0 0 0 0 0 0 0 0 0 0
0 0 0 0 0 0 0 0 0 0 0 0 0 0 0 0 0 0 0 0 0 0 0 0 0 0 0 0 0 0 0 0 0 0 0 0 0 0 0 0 0 0 0 0
Wind_Speed
7 7 5 7 8 8 10 9 9 10 10 13 8 7 6 5 4 4 4 3 3 3 3 3 3 4 4 4 3 2 2 2 3 3 3 2 2 2 3 3 3 3 3 3
5 4 5 9 10 11 11 9 11 11 15 11 6 3 4 5 4 5 5 4 4 4 4 4 4 4 4 4 3 2 2 3 3 3 2 2 2 2 2 2 2 2 2 3
4 3 4 9 10 11 8 8 8 11 12 5 4 5 5 6 5 5 5 5 4 4 4 4 4 4 4 4 3 2 2 3 3 2 2 2 2 2 2 2 2 2 2 3
2 3 6 8 2 6 7 8 9 8 7 6 6 6 6 5 5 6 5 5 5 4 5 4 4 4 4 3 3 2 2 3 2 2 2 2 2 2 2 2 1 2 3 3
1 3 10 8 3 5 5 7 6 9 9 6 3 4 5 4 4 5 5 4 4 4 4 4 4 4 3 3 3 2 3 3 3 3 2 2 2 2 2 1 2 2 2 1
3 3 8 7 2 2 2 6 4 6 7 4 0 3 6 4 3 4 3 3 3 3 3 3 4 3 2 3 3 3 3 3 3 3 2 2 3 2 1 1 2 2 1 1
5 6 10 7 2 3 3 7 3 4 5 4 5 6 5 4 3 3 3 3 3 2 2 3 3 2 3 3 4 4 3 3 2 2 2 2 1 1 1 1 1 1 1 1
5 6 11 4 5 7 8 3 2 3 4 5 6 5 4 4 4 3 3 3 3 2 3 3 2 1 3 4 5 4 3 2 2 2 1 1 0 0 0 1 0 0 1 1
10 10 6 5 7 6 3 4 4 4 4 4 4 4 4 4 4 4 3 3 3 2 3 3 2 2 3 5 4 3 2 2 1 1 1 0 1 1 1 1 1 1 0 1
6 10 8 7 7 6 5 6 5 4 4 3 4 4 4 4 4 4 4 4 3 2 3 4 3 3 4 4 3 2 2 2 1 1 1 0 0 1 1 1 1 1 1 1
7 8 6 7 7 7 5 4 5 4 3 4 4 4 4 4 4 4 4 3 3 3 4 4 4 3 3 3 2 2 2 2 2 1 0 0 1 1 1 2 1 1 1 1
9 7 6 7 5 4 4 5 5 4 4 3 4 5 4 4 4 4 4 3 3 3 4 4 4 4 3 2 1 1 1 1 1 0 0 0 0 1 2 1 2 2 1 1
8 5 5 6 5 4 5 5 5 4 5 4 4 4 4 4 4 3 3 3 4 4 4 3 3 4 3 2 1 1 1 1 1 0 0 0 0 0 1 2 2 2 2 2
7 4 5 5 5 5 4 4 3 2 3 3 3 2 2 3 3 3 4 4 3 3 3 3 3 4 3 1 1 1 1 2 1 1 1 1 1 1 1 1 1 1 2 2
6 6 7 5 3 3 3 2 2 2 2 3 2 2 2 3 4 4 4 2 2 2 3 3 3 4 2 1 1 1 1 1 1 1 1 1 1 1 0 0 1 1 1 1
5 4 4 4 4 4 3 3 3 4 3 3 3 3 3 3 3 3 3 1 1 3 3 3 3 3 2 1 1 1 1 2 1 0 1 1 1 1 0 0 0 0 1 0
4 4 3 4 5 5 4 4 5 5 4 4 4 3 2 1 2 2 3 2 2 3 3 3 3 3 1 1 1 1 0 1 1 0 0 0 0 0 0 0 0 0 1 1
7 6 6 5 5 5 4 4 4 4 4 4 3 2 2 2 3 3 3 1 1 2 2 3 2 1 1 1 1 0 0 0 0 0 0 0 0 0 0 0 0 0 1 1
4 4 4 4 4 4 3 3 3 3 3 3 3 3 3 3 3 2 1 1 1 3 3 2 2 1 1 1 0 1 1 1 0 0 0 1 0 0 0 0 0 0 1 1
3 3 3 3 2 3 3 3 2 2 3 3 3 2 2 3 2 2 1 2 3 3 2 1 1 1 1 1 1 1 1 1 1 0 0 0 0 0 0 0 0 0 1 1
3 2 2 2 2 2 3 3 3 3 3 3 3 3 3 3 2 2 2 3 3 1 1 2 1 1 1 1 1 1 1 1 1 1 1 0 0 0 0 0 0 1 1 1
2 2 2 2 2 2 2 2 2 3 2 2 2 2 2 2 2 2 3 3 2 2 1 1 1 2 2 2 1 1 1 1 1 1 1 1 1 1 1 1 1 1 1 1
2 2 2 2 2 2 2 1 2 2 3 3 3 3 3 3 2 2 3 2 1 3 1 1 2 3 2 1 1 1 1 1 1 1 1 1 1 1 1 1 1 1 1 1
2 2 2 2 1 1 2 2 2 2 2 2 2 3 2 2 2 2 2 3 3 3 1 2 3 3 2 1 1 1 1 1 1 1 1 1 1 1 1 1 1 1 1 1
2 2 2 2 2 3 3 2 1 1 1 1 2 2 2 2 2 2 1 2 3 2 1 2 3 2 1 1 1 1 1 1 1 1 1 1 1 1 1 1 1 1 1 1
2 3 3 3 3 3 2 2 2 2 1 1 1 1 1 1 1 1 1 1 1 2 1 1 1 1 1 1 1 1 1 1 1 1 1 1 1 1 1 1 1 1 1 1
2 2 2 2 2 2 2 2 3 3 3 3 2 2 1 1 1 1 1 1 1 1 1 1 1 1 1 1 1 1 1 1 1 1 1 1 1 1 1 1 1 1 1 1
Wind_Direction
259 269 252 242 238 216 214 214 223 246 253 270 276 275 280 286 295 302 299 302 303 304 306 312 316 311 309 304 301 291 277 271 270 273 277 280 282 280 269 250 238 233 233 240
276 261 259 262 247 230 233 231 239 260 270 265 268 272 282 280 281 284 286 288 293 300 306 305 304 306 306 300 294 282 267 272 280 281 280 282 281 284 284 266 249 240 234 238
274 308 317 270 233 209 217 216 207 234 250 268 280 272 261 258 259 260 273 279 284 288 287 288 291 293 291 288 286 278 268 274 274 271 274 282 288 295 290 276 256 246 247 244
287 354 257 250 215 195 221 242 222 238 255 254 259 275 267 247 242 259 270 275 278 283 290 292 295 301 299 297 294 280 270 270 270 272 279 287 284 285 286 287 271 257 255 248
205 260 277 288 240 181 203 265 227 232 255 265 288 321 289 246 242 250 259 267 267 270 278 290 301 305 309 312 305 291 277 273 270 265 269 269 268 268 276 287 289 282 264 252
187 227 252 258 230 168 123 280 245 214 240 248 214 294 278 278 269 268 280 280 280 289 297 298 302 308 305 304 310 295 279 274 268 258 257 252 255 258 279 275 280 285 293 301
212 237 262 258 209 132 176 256 267 217 225 216 214 232 265 287 290 284 289 287 288 294 296 288 298 312 300 304 296 290 285 283 279 269 259 247 251 263 282 288 298 303 310 328
185 217 253 218 149 191 226 262 252 238 233 229 242 266 282 286 290 296 302 301 298 301 302 304 301 294 295 294 292 297 296 286 283 281 268 253 191 255 235 221 224 286 331 335
198 220 244 198 210 232 232 254 256 247 254 233 244 262 275 279 281 286 288 292 298 289 301 309 299 274 279 291 302 311 319 308 294 292 282 233 185 204 205 197 205 230 245 308
247 257 254 251 255 263 251 246 254 253 251 229 239 255 267 273 279 283 288 291 296 292 291 297 300 285 275 288 300 309 313 312 301 281 282 260 235 212 203 205 212 223 242 266
249 268 288 268 243 245 250 250 257 260 245 234 234 256 257 265 269 272 282 287 282 274 278 284 295 291 288 290 295 303 302 309 315 320 265 207 250 236 229 220 217 214 225 218
231 230 224 258 259 243 243 252 248 250 266 257 230 241 251 261 265 267 271 279 284 285 282 289 296 291 287 281 268 278 296 304 305 320 294 218 281 337 315 287 289 288 286 276
234 242 232 258 269 245 238 248 244 233 238 254 253 238 242 259 266 266 268 270 273 279 282 289 293 292 293 289 269 259 268 283 282 276 263 233 204 208 328 333 313 308 308 293
240 246 262 259 260 263 254 252 248 252 252 243 248 248 246 261 271 266 264 267 274 282 286 285 283 286 292 289 261 263 268 274 247 237 232 226 219 221 227 258 316 321 306 308
236 224 235 257 270 273 263 244 241 263 267 270 253 243 240 245 256 264 274 285 289 284 282 284 284 290 299 284 255 256 262 273 239 230 208 199 204 208 213 238 277 306 339 336
246 238 234 243 254 259 256 238 236 251 251 250 251 253 247 241 253 271 282 277 260 267 272 275 280 288 295 276 271 262 263 284 293 165 150 166 179 182 191 231 284 282 275 299
223 245 239 246 250 253 245 237 233 241 243 242 245 250 243 236 267 278 282 274 253 258 263 265 278 293 292 269 240 246 264 282 303 346 157 165 159 165 159 170 232 297 310 306
218 225 223 220 226 236 245 241 237 235 235 240 237 225 221 220 235 253 268 289 310 297 281 270 279 291 287 275 238 217 206 245 277 224 296 303 160 149 151 165 222 295 326 329
224 226 234 230 222 220 232 240 239 236 233 219 213 224 233 237 240 249 251 244 262 277 284 277 280 284 263 263 245 172 172 190 216 311 347 269 302 53 93 42 327 307 303 325
227 222 231 241 230 216 231 243 234 234 233 214 212 225 244 252 241 226 218 241 250 255 259 267 262 252 248 245 228 162 175 190 190 198 204 195 221 282 318 303 314 314 321 328
228 226 232 242 251 243 235 233 222 231 233 206 205 221 238 254 236 206 211 263 279 257 234 248 242 243 235 217 197 161 168 177 175 180 195 218 237 263 294 304 303 303 313 324
231 223 236 238 238 261 259 237 225 227 227 223 227 224 224 241 242 243 244 248 266 257 229 231 228 232 224 202 161 153 157 164 182 190 200 212 222 242 265 286 288 291 299 305
234 227 233 234 230 247 279 254 228 221 221 222 222 221 223 227 217 222 264 261 241 243 231 222 234 233 218 160 141 155 168 179 194 210 223 226 226 235 249 263 273 274 275 277
234 230 232 231 197 217 260 265 243 232 228 235 235 225 212 222 248 246 251 252 247 243 229 235 232 223 188 138 149 164 180 190 200 205 217 237 239 240 248 260 272 278 279 280
230 228 221 209 217 232 239 241 236 230 216 241 253 244 228 216 223 238 234 233 236 237 229 234 231 209 164 145 162 176 182 193 194 188 201 219 231 236 242 251 262 270 268 263
226 227 228 228 229 230 220 207 220 227 213 233 256 249 237 226 215 215 213 222 227 222 212 210 199 186 155 160 172 181 187 209 228 217 208 222 238 238 239 250 263 259 258 261
235 236 233 244 241 226 213 206 216 225 218 214 233 237 223 212 195 192 187 185 182 173 175 173 163 166 167 169 169 175 176 179 195 209 212 217 223 236 253 257 255 255 255 253